SES-10 (42432 NORAD) Tracking and Keplerian Element Data

This shows tracking and keplerian element data for the satellite.

Feedback or suggestion? Click here.




ElementValue
Catalog42432
NameSES-10
Epoch Orbit629
Epoch Day348.95365157
Epoch Year2018
RAAN15.0723
Inclination0.0099
Eccentricity0.0002415
Argument of Perigee239.4162
Mean Anonmoly105.4987
Mean Motion1.00274903
Decay Rate-2.61E-06
L11 42432U 17017A 18348.95365157 -.00000261 00000-0 00000+0 0 9995
L22 42432 0.0099 15.0723 0002415 239.4162 105.4987 1.00274903 6299

Live tracking and technical data element details for SES-10 (NORAD 42432). SES-10 can be tracked NOW for your location showing map with azimuth and elevation plus other details from your city location.

Track the satellite on the map from your city or location and see movement details for azimuth, elevation, latitude, longitude, range, height, and movement on the map or in text.







IsCatalogInMostPopularTable: catalog: 42432, numindb: 144
Update: records affected: 1



GetName: 42432 SES-10

Hit Count: updated at: Sat, 15 Dec 2018 14:19:54 GMT